TimeEDT,TemperatureF,Dew PointF,Humidity,Sea Level PressureIn,VisibilityMPH,Wind Direction,Wind SpeedMPH,Gust SpeedMPH,PrecipitationIn,Events,Conditions,WindDirDegrees,DateUTC
12:56 AM,75.0,72.0,90,29.91,10.0,WSW,8.1,-,N/A,,Scattered Clouds,240,2013-09-03 04:56:00
1:56 AM,75.0,71.1,87,29.89,10.0,SW,4.6,-,N/A,,Mostly Cloudy,220,2013-09-03 05:56:00
2:56 AM,75.0,71.1,87,29.88,10.0,SSW,8.1,-,N/A,,Mostly Cloudy,200,2013-09-03 06:56:00
3:56 AM,75.9,70.0,82,29.88,10.0,West,6.9,-,N/A,,Mostly Cloudy,260,2013-09-03 07:56:00
4:56 AM,75.0,70.0,84,29.88,10.0,SW,5.8,-,N/A,,Scattered Clouds,220,2013-09-03 08:56:00
5:56 AM,73.9,70.0,87,29.89,10.0,WSW,8.1,-,N/A,,Clear,240,2013-09-03 09:56:00
6:56 AM,73.9,70.0,87,29.91,10.0,West,6.9,-,N/A,,Scattered Clouds,260,2013-09-03 10:56:00
7:56 AM,75.0,71.1,87,29.92,10.0,West,8.1,-,N/A,,Scattered Clouds,270,2013-09-03 11:56:00
8:56 AM,79.0,72.0,79,29.93,10.0,West,9.2,-,N/A,,Scattered Clouds,260,2013-09-03 12:56:00
9:56 AM,81.0,72.0,74,29.95,10.0,West,9.2,-,N/A,,Scattered Clouds,270,2013-09-03 13:56:00
10:56 AM,84.9,73.0,67,29.94,10.0,WSW,8.1,-,N/A,,Scattered Clouds,250,2013-09-03 14:56:00
11:56 AM,88.0,73.9,63,29.94,10.0,WSW,6.9,-,N/A,,Scattered Clouds,250,2013-09-03 15:56:00
12:56 PM,91.0,73.0,55,29.90,10.0,WSW,10.4,-,N/A,,Scattered Clouds,250,2013-09-03 16:56:00
1:56 PM,91.0,72.0,53,29.90,10.0,WSW,13.8,-,N/A,,Scattered Clouds,250,2013-09-03 17:56:00
2:56 PM,93.0,73.0,52,29.87,10.0,West,15.0,20.7,N/A,,Scattered Clouds,260,2013-09-03 18:56:00
3:56 PM,91.9,73.9,55,29.86,10.0,SW,13.8,20.7,N/A,,Scattered Clouds,230,2013-09-03 19:56:00
4:56 PM,91.9,71.1,50,29.85,10.0,West,13.8,-,N/A,,Scattered Clouds,280,2013-09-03 20:56:00
5:43 PM,89.6,71.6,55,29.85,10.0,WSW,10.4,-,N/A,Thunderstorm,Thunderstorm,250,2013-09-03 21:43:00
5:56 PM,89.1,73.0,59,29.87,10.0,WSW,11.5,-,N/A,Thunderstorm,Thunderstorm,250,2013-09-03 21:56:00
6:43 PM,82.4,71.6,70,29.87,10.0,SSW,5.8,-,N/A,,Mostly Cloudy,210,2013-09-03 22:43:00
6:56 PM,82.9,70.0,65,29.87,10.0,SW,5.8,-,N/A,,Mostly Cloudy,220,2013-09-03 22:56:00
7:41 PM,80.6,71.6,74,29.91,10.0,West,16.1,20.7,0.00,Rain-Thunderstorm,Light Thunderstorms and Rain,260,2013-09-03 23:41:00
7:56 PM,80.1,69.1,69,29.90,10.0,WSW,12.7,-,0.00,Rain-Thunderstorm,Light Thunderstorms and Rain,250,2013-09-03 23:56:00
8:32 PM,78.8,66.2,65,29.93,10.0,West,4.6,-,0.00,,Mostly Cloudy,270,2013-09-04 00:32:00
8:56 PM,77.0,66.9,71,29.95,10.0,SW,6.9,-,0.00,,Mostly Cloudy,230,2013-09-04 00:56:00
9:56 PM,77.0,68.0,74,29.94,10.0,Calm,Calm,-,N/A,,Overcast,0,2013-09-04 01:56:00
10:56 PM,77.0,68.0,74,29.96,10.0,WSW,3.5,-,N/A,,Mostly Cloudy,250,2013-09-04 02:56:00
11:56 PM,78.1,69.1,74,29.96,10.0,West,6.9,-,N/A,,Mostly Cloudy,260,2013-09-04 03:56:00